Location: ??????
(55.4348°N, 39.2112°E)
Time: 21:26:17
(UTC+00:00)

COSMOS 2428 - Pass Details

Date: 14 April 2024
Orbit: 845 x 855 km, 70.9° (Epoch: 23 May)

Event Time Altitude Azimuth Distance (km) Brightness Sun altitude
Exits shadow 01:22:50 10° 239° (WSW) 2,464 4.4 -8.3°
Maximum altitude 01:28:20 50° 314° (NW) 1,081 3.2 -7.6°
Drops below altitude 10° 01:33:52 10° 30° (NNE) 2,484 6.2 -7.0°
Sets 01:36:25 0° 36° (NE) 3,421 7.2 -6.6°
